Location: Arboyeti
(42.1122°N, 44.6017°E)
Time: 20:48:57
(UTC+00:00)

Resurs 01 Rocket - Pass Details

Date: 19 April 2021
Orbit: 634 x 644 km, 97.9° (Epoch: 18 May)

Event Time Altitude Azimuth Distance (km) Brightness Sun altitude
Exits shadow 16:21:00 - 104° (ESE) 2,201 3.7 -6.7°
Reaches altitude 10° 16:21:38 10° 98° (E) 2,042 3.6 -6.8°
Maximum altitude 16:24:10 15° 63° (ENE) 1,726 3.5 -7.3°
Drops below altitude 10° 16:26:42 10° 28° (NNE) 2,050 4.2 -7.7°
Sets 16:29:44 0° 6° (N) 2,965 5.3 -8.2°
